Regional Weather Roundup
Issued by NWS

Home | Current Version | Previous Version | Graphics & Text | Print | Product List | Glossary Off
Versions: 1 2 3 4 5 6 7 8 9 10 11 12 13 14 15 16 17 18 19 20 21 22 23 24 25 26 27 28 29 30 31 32 33 34 35 36 37 38 39 40 41 42 43 44 45 46 47 48 49 50

005
ASUS43 KTOP 240959
RWRKS

WEATHER ROUNDUP FOR KANSAS
NATIONAL WEATHER SERVICE GOODLAND KS
500 AM CDT SUN SEP 24 2017

NOTE:  "FAIR" INDICATES FEW OR NO CLOUDS BELOW 12,000 FEET WITH NO
SIGNIFICANT WEATHER AND/OR OBSTRUCTIONS TO VISIBILITY.

KSZ001>006-013>018-027>032-041>047-241100-
NORTHWEST KANSAS

CITY           SKY/WX    TMP DP  RH WIND       PRES   REMARKS
GOODLAND       LGT RAIN  50  49  96 N13       29.89F
HAYS           PTCLDY    73  63  70 S15G22    29.86S
HILL CITY      CLOUDY    68  66  93 S8        29.86R
RUSSELL        PTCLDY    72  63  73 S16       29.86S
$$

KSZ061>065-074>080-084>089-241100-
SOUTHWEST KANSAS

CITY           SKY/WX    TMP DP  RH WIND       PRES   REMARKS
DODGE CITY     LGT RAIN  66  62  87 SW12      29.90R
ELKHART          N/A     60  63 100 W2          N/A
GARDEN CITY    RAIN      60  58  92 SE7       29.91R FOG
GREAT BEND     MOCLDY    71  63  75 S12       29.89S
LIBERAL        LGT RAIN  61  60  97 E7        29.89F
$$

KSZ066>073-081>083-090>101-241100-
SOUTHEAST KANSAS

CITY           SKY/WX    TMP DP  RH WIND       PRES   REMARKS
CHANUTE        CLEAR     68  64  87 SE6       29.95S
COFFEYVILLE    CLEAR     70  65  84 SE5       29.93S
HUTCHINSON     CLEAR     71  65  81 SE8       29.89S
MEDICINE LODGE   N/A     71  63  75 SE5       29.89R
NEWTON         CLEAR     67  63  87 SE9       29.92S
PARSONS        CLEAR     70  64  81 SE3       29.95S
WICHITA INTL   CLEAR     72  65  78 SE12      29.90R
WICHITA JABRA  CLEAR     71  65  81 S9        29.91S
WINFIELD       CLEAR     71  66  84 SE8       29.92S
$$

KSZ007>012-019>026-033>040-048>060-102>105-241100-
NORTHEAST KANSAS

CITY           SKY/WX    TMP DP  RH WIND       PRES   REMARKS
CONCORDIA      CLEAR     67  64  90 SE6       29.89S
EMPORIA        CLEAR     69  62  78 SE10      29.93S
LAWRENCE       CLEAR     67  65  93 CALM      29.94R
MANHATTAN      CLEAR     73  63  70 S6        29.90R
OLATHE IND     CLEAR     71  65  81 S8        29.96R
OLATHE EXE     CLEAR     68  66  93 S6        29.96R
SALINA         CLEAR     74  63  68 SE8       29.89R
TOPEKA BILLARD CLEAR     68  66  93 CALM      29.93R
TOPEKA FORBES  CLEAR     69  66  90 SE5       29.94R
$$




USA.gov is the U.S. government's official web portal to all federal, state and local government web resources and services.